Location: Boiro
(42.6475°N, 8.8834°W)
Time: 15:19:48
(UTC+01:00)

Transit 2A Rocket - Visible Passes

Search period start: 09 December 2021 00:00
Search period end: 19 December 2021 00:00
Orbit: 584 x 918 km, 66.7° (Epoch: 08 December)

Date Brightness Start Highest point End Pass type
(mag) Time Alt. Az. Time Alt. Az. Time Alt. Az.
09 Dec 6.6 07:11:59 10° S 07:17:15 42° ESE 07:22:53 10° NE visible
10 Dec 7.4 06:30:19 10° SSE 06:34:51 25° ESE 06:39:39 10° NE visible
10 Dec 5.4 08:11:26 10° SW 08:17:04 56° NW 08:23:04 10° NNE visible
11 Dec 8.1 05:49:32 10° SE 05:52:35 15° ESE 05:55:44 10° ENE visible
11 Dec 5.2 07:28:35 10° SSW 07:34:18 88° WNW 07:40:25 10° NNE visible
12 Dec 5.8 06:46:07 10° SSW 06:51:40 58° ESE 06:57:37 10° NE visible
13 Dec 6.7 06:04:05 10° S 06:09:11 35° ESE 06:14:37 10° NE visible
13 Dec 5.6 07:46:14 10° WSW 07:51:44 43° NW 07:57:33 10° NNE visible
14 Dec 7.5 05:23:19 12° SSE 05:26:50 21° ESE 05:31:12 10° ENE visible
14 Dec 5.2 07:03:26 11° SW 07:08:52 66° WNW 07:14:59 10° NNE visible
15 Dec 8.0 04:44:12 12° ESE 04:44:36 12° E 04:46:42 10° E visible
15 Dec 5.3 06:24:14 44° SSW 06:26:10 79° ESE 06:32:17 10° NNE visible
15 Dec 6.4 08:04:54 10° W 08:09:32 23° NW 08:14:20 10° N visible
16 Dec 6.1 05:44:16 46° E 05:44:16 46° E 05:49:25 10° NE visible
16 Dec 6.0 07:24:15 26° W 07:26:28 33° NW 07:31:57 10° NNE visible
17 Dec 7.5 05:03:53 21° ENE 05:03:53 21° ENE 05:06:17 10° NE visible
17 Dec 5.5 06:43:50 49° NW 06:43:50 49° NW 06:49:28 10° NNE visible
17 Dec 7.0 08:24:47 10° WNW 08:27:42 14° NNW 08:30:39 10° N visible
18 Dec 6.3 06:03:09 38° NNE 06:03:09 38° NNE 06:06:52 10° NNE visible
18 Dec 6.7 07:43:06 18° NW 07:44:24 19° NW 07:48:37 10° N visible
